EW0758 Weather Reports


Display with metric or nautical units.
time (UTC)temp
F
wind
direction
speed
MPH
gust
MPH
rain 1hr
in
rain 24hr
in
rain mn
in
humidity
%
barometer
mb
20260509091322 95 131 7.0 13.0 0.00 0.00 0.00 65 1006.8
20260509091214 95 312 1.0 15.0 0.00 0.00 0.00 64 1006.6
20260509090258 95 45 0.0 20.0 0.00 0.00 0.00 65 1006.6
20260509085755 95 147 14.0 45.0 0.00 0.00 0.00 65 1006.6
20260509085247 95 195 13.0 45.0 0.00 0.00 0.00 65 1006.2
20260509084739 96 161 26.0 40.0 0.00 0.00 0.00 65 1006.4
20260509084233 96 185 20.0 40.0 0.00 0.00 0.00 65 1006.2
20260509083731 97 335 0.0 40.0 0.00 0.00 0.00 64 1006.2
20260509083221 97 184 11.0 20.0 0.00 0.00 0.00 64 1006.4
20260509082712 97 174 6.0 17.0 0.00 0.00 0.00 64 1006.1
20260509082202 97 176 12.0 28.0 0.00 0.00 0.00 65 1006.1
20260509081700 96 14 1.0 28.0 0.00 0.00 0.00 64 1006.3
20260509081650 97 270 6.0 17.0 0.00 0.00 0.00 64 1006.4
20260509080642 97 83 1.0 17.0 0.00 0.00 0.00 64 1006.1
20260509080628 97 250 9.0 15.0 0.00 0.00 0.00 65 1006.4
20260509075625 96 203 2.0 25.0 0.00 0.00 0.00 64 1006.4
20260509075124 96 268 8.0 25.0 0.00 0.00 0.00 65 1006.3
20260509074607 96 170 13.0 25.0 0.00 0.00 0.00 65 1006.4
20260509074115 96 198 11.0 28.0 0.00 0.00 0.00 66 1006.6
20260509074101 96 211 12.0 23.0 0.00 0.00 0.00 65 1006.4
20260509073107 97 20 4.0 33.0 0.00 0.00 0.00 66 1006.4
20260509072544 96 357 2.0 45.0 0.00 0.00 0.00 65 1006.3
20260509072021 96 216 15.0 45.0 0.00 0.00 0.00 66 1006.5
20260509071501 96 142 12.0 40.0 0.00 0.00 0.00 66 1006.5
20260509070952 95 35 1.0 35.0 0.00 0.00 0.00 65 1006.8
20260509070443 95 131 13.0 35.0 0.00 0.00 0.00 66 1006.8
20260509065933 94 201 9.0 30.0 0.00 0.00 0.00 66 1006.8
20260509065430 95 96 4.0 30.0 0.00 0.00 0.00 65 1006.9
20260509064916 96 48 0.0 48.0 0.00 0.00 0.00 65 1006.9
20260509064410 96 114 3.0 48.0 0.00 0.00 0.00 65 1006.9
20260509063902 96 165 15.0 35.0 0.00 0.00 0.00 64 1006.9
20260509063352 96 177 7.0 30.0 0.00 0.00 0.00 64 1007.0
20260509062848 96 310 5.0 35.0 0.00 0.00 0.00 64 1007.1
20260509062329 96 165 18.0 35.0 0.00 0.00 0.00 65 1007.0
20260509061808 96 246 15.0 33.0 0.00 0.00 0.00 64 1007.2
20260509061300 96 358 6.0 17.0 0.00 0.00 0.00 65 1007.4
20260509060753 96 196 10.0 17.0 0.00 0.00 0.00 64 1007.1
20260509060249 96 332 0.0 15.0 0.00 0.00 0.00 64 1007.2
20260509055737 95 37 4.0 15.0 0.00 0.00 0.00 65 1007.4
20260509055219 95 67 4.0 20.0 0.00 0.00 0.00 65 1007.4
20260509055051 93 189 8.0 20.0 0.00 0.00 0.00 68 1007.4
20260509054201 93 232 15.0 20.0 0.00 0.00 0.00 69 1007.6
20260509053654 95 210 13.0 20.0 0.00 0.00 0.00 69 1007.4
20260509053146 94 18 0.0 20.0 0.00 0.00 0.00 68 1007.6
20260509052626 94 161 6.0 20.0 0.00 0.00 0.00 69 1007.7
20260509052108 94 204 12.0 20.0 0.00 0.00 0.00 68 1008.0
20260509051548 96 5 2.0 20.0 0.00 0.00 0.00 65 1007.9
20260509051041 96 332 6.0 20.0 0.00 0.00 0.00 66 1008.0
20260509050521 95 267 7.0 20.0 0.00 0.00 0.00 67 1008.2
20260509050011 94 320 9.0 23.0 0.00 0.00 0.00 68 1008.3
20260509045501 94 15 10.0 23.0 0.00 0.00 0.00 68 1008.3
20260509044959 93 351 1.0 17.0 0.00 0.00 0.00 70 1008.5
20260509044447 93 218 4.0 25.0 0.00 0.00 0.00 70 1008.9
20260509043938 92 218 13.0 17.0 0.00 0.00 0.00 70 1008.8
20260509043433 93 224 10.0 15.0 0.00 0.00 0.00 70 1008.9
20260509042925 93 16 4.0 13.0 0.00 0.00 0.00 70 1008.8
20260509042823 93 326 0.0 20.0 0.00 0.00 0.00 70 1009.0
20260509041909 91 177 5.0 20.0 0.00 0.00 0.00 71 1008.9
20260509041419 92 198 17.0 23.0 0.00 0.00 0.00 71 1009.3
20260509040903 92 114 2.0 23.0 0.00 0.00 0.00 70 1009.2
20260509040352 92 24 3.0 25.0 0.00 0.00 0.00 70 1009.2
20260509035842 92 188 13.0 25.0 0.00 0.00 0.00 72 1009.7
20260509035428 93 127 8.0 20.0 0.00 0.00 0.00 69 1009.3
20260509034254 93 194 11.0 28.0 0.00 0.00 0.00 70 1009.6
20260509033905 94 206 11.0 25.0 0.00 0.00 0.00 70 1009.6
20260509032732 93 44 3.0 25.0 0.00 0.00 0.00 71 1009.7
20260509032211 91 187 9.0 25.0 0.00 0.00 0.00 73 1009.5
20260509031653 92 199 10.0 23.0 0.00 0.00 0.00 70 1009.8
20260509031150 91 220 13.0 20.0 0.00 0.00 0.00 72 1010.0
20260509030645 92 218 6.0 23.0 0.00 0.00 0.00 70 1009.9
20260509030121 91 216 9.0 28.0 0.00 0.00 0.00 72 1009.9
20260509025620 89 193 17.0 28.0 0.00 0.00 0.00 75 1010.3
20260509025059 90 213 17.0 23.0 0.00 0.00 0.00 73 1010.0
20260509024914 90 213 6.0 25.0 0.00 0.00 0.00 72 1009.9
20260509024049 91 218 7.0 38.0 0.00 0.00 0.00 73 1010.1
20260509023911 91 189 14.0 38.0 0.00 0.00 0.00 71 1010.4
20260509023028 90 201 11.0 20.0 0.00 0.00 0.00 73 1010.3
20260509022525 91 242 1.0 17.0 0.00 0.00 0.00 72 1010.3
20260509022003 90 12 4.0 13.0 0.00 0.00 0.00 72 1010.2
20260509021453 90 251 7.0 23.0 0.00 0.00 0.00 72 1010.4
20260509020946 91 213 4.0 23.0 0.00 0.00 0.00 71 1010.3
20260509020438 92 142 4.0 13.0 0.00 0.00 0.00 70 1010.4
20260509015932 92 199 2.0 15.0 0.00 0.00 0.00 69 1010.6
20260509015432 91 25 0.0 17.0 0.00 0.00 0.00 71 1010.8
20260509014921 92 35 4.0 17.0 0.00 0.00 0.00 70 1010.7
20260509014409 95 29 2.0 13.0 0.00 0.00 0.00 64 1010.6
20260509013906 94 22 6.0 10.0 0.00 0.00 0.00 63 1010.5
20260509013812 94 61 6.0 10.0 0.00 0.00 0.00 62 1010.7
20260509012853 93 84 8.0 13.0 0.00 0.00 0.00 63 1010.6
20260509012344 94 61 6.0 10.0 0.00 0.00 0.00 63 1010.6
20260509011836 94 349 1.0 13.0 0.00 0.00 0.00 64 1010.8
20260509011319 93 15 1.0 13.0 0.00 0.00 0.00 64 1010.7
20260509010811 93 58 4.0 13.0 0.00 0.00 0.00 65 1010.7
20260509010303 93 163 6.0 13.0 0.00 0.00 0.00 66 1010.9
20260509005432 92 54 6.0 13.0 0.00 0.00 0.00 67 1010.8
20260509004208 91 61 4.0 15.0 0.00 0.00 0.00 68 1011.1
20260509003700 91 40 11.0 17.0 0.00 0.00 0.00 68 1010.9
20260509003152 91 41 2.0 17.0 0.00 0.00 0.00 68 1010.8
20260509002648 91 358 2.0 28.0 0.00 0.00 0.00 69 1010.7
20260509002513 90 20 3.0 28.0 0.00 0.00 0.00 71 1010.8
20260509001620 90 174 2.0 10.0 0.00 0.00 0.00 70 1010.9
20260509001114 89 282 0.0 13.0 0.00 0.00 0.00 71 1010.6
20260509000601 90 67 2.0 8.0 0.00 0.00 0.00 70 1010.9
20260509000110 90 32 2.0 8.0 0.00 0.00 0.00 70 1010.6
20260508235548 89 27 1.0 10.0 0.00 0.00 0.00 72 1010.7
20260508235031 89 46 0.0 10.0 0.00 0.00 0.00 72 1010.8
20260508234522 89 15 3.0 13.0 0.00 0.00 0.00 71 1010.5
20260508234337 88 350 1.0 13.0 0.00 0.00 0.00 73 1010.5
20260508233453 88 64 0.0 13.0 0.00 0.00 0.00 73 1010.5
20260508232952 88 20 3.0 13.0 0.00 0.00 0.00 74 1010.4
20260508232434 89 36 0.0 10.0 0.00 0.00 0.00 72 1010.3
20260508231934 88 18 4.0 10.0 0.00 0.00 0.00 74 1010.5
20260508231413 87 37 0.0 8.0 0.00 0.00 0.00 73 1010.2
20260508230901 87 30 2.0 8.0 0.00 0.00 0.00 74 1010.0
20260508230353 87 39 2.0 15.0 0.00 0.00 0.00 73 1010.3
20260508225843 86 33 0.0 15.0 0.00 0.00 0.00 75 1010.3
20260508225343 85 308 6.0 15.0 0.00 0.00 0.00 76 1010.0
20260508224818 85 336 9.0 15.0 0.00 0.00 0.00 76 1010.0
20260508224437 85 41 4.0 15.0 0.00 0.00 0.00 76 1009.9
20260508223645 85 341 6.0 8.0 0.00 0.00 0.00 77 1009.8
20260508222715 84 14 1.0 8.0 0.00 0.00 0.00 78 1009.7
20260508222151 84 9 1.0 5.0 0.00 0.00 0.00 78 1009.5
20260508221644 84 29 0.0 5.0 0.00 0.00 0.00 79 1009.4
20260508221135 84 32 0.0 2.0 0.00 0.00 0.00 79 1009.2
20260508220633 84 31 0.0 5.0 0.00 0.00 0.00 79 1009.2
20260508220534 83 20 0.0 5.0 0.00 0.00 0.00 79 1009.1
20260508215739 83 13 1.0 2.0 0.00 0.00 0.00 79 1009.2
20260508214600 83 65 0.0 0.0 0.00 0.00 0.00 79 1009.0
20260508214048 83 16 0.0 0.0 0.00 0.00 0.00 80 1009.2
20260508213642 83 24 0.0 0.0 0.00 0.00 0.00 80 1009.1
20260508212504 83 28 0.0 8.0 0.00 0.00 0.00 80 1008.9
20260508211954 83 16 1.0 10.0 0.00 0.00 0.00 80 1008.9
20260508211448 83 27 0.0 10.0 0.00 0.00 0.00 80 1008.8
20260508211342 83 24 1.0 10.0 0.00 0.00 0.00 80 1009.0
20260508210814 84 22 3.0 5.0 0.00 0.00 0.00 79 1008.8
20260508205916 84 36 0.0 2.0 0.00 0.00 0.00 79 1008.8
20260508205359 84 30 0.0 2.0 0.00 0.00 0.00 78 1009.1
20260508204844 84 38 0.0 2.0 0.00 0.00 0.00 78 1009.0
20260508204729 84 35 0.0 2.0 0.00 0.00 0.00 78 1008.7
20260508204218 84 39 0.0 5.0 0.00 0.00 0.00 78 1008.6
20260508203323 84 28 0.0 13.0 0.00 0.00 0.00 78 1008.6
20260508202810 84 33 4.0 13.0 0.00 0.00 0.00 78 1008.8
20260508202252 84 32 0.0 8.0 0.00 0.00 0.00 78 1008.8
20260508201745 84 77 2.0 15.0 0.00 0.00 0.00 78 1008.9
20260508201239 84 61 2.0 15.0 0.00 0.00 0.00 78 1008.5
20260508200729 84 25 1.0 13.0 0.00 0.00 0.00 78 1008.6
20260508200228 84 347 1.0 15.0 0.00 0.00 0.00 78 1008.9
20260508195704 84 37 0.0 15.0 0.00 0.00 0.00 78 1008.7
20260508195155 84 25 0.0 8.0 0.00 0.00 0.00 77 1008.8
20260508194649 84 43 0.0 8.0 0.00 0.00 0.00 77 1008.5
20260508194139 84 52 0.0 10.0 0.00 0.00 0.00 77 1008.4
20260508193634 84 56 5.0 10.0 0.00 0.00 0.00 77 1008.4
20260508193113 84 59 2.0 13.0 0.00 0.00 0.00 77 1008.5
20260508193057 85 55 1.0 13.0 0.00 0.00 0.00 77 1008.5
20260508192518 85 34 0.0 10.0 0.00 0.00 0.00 77 1008.5
20260508191537 85 68 3.0 10.0 0.00 0.00 0.00 77 1008.5
20260508191031 85 24 0.0 8.0 0.00 0.00 0.00 76 1008.8
20260508190935 85 40 2.0 8.0 0.00 0.00 0.00 76 1008.8
20260508190003 85 30 0.0 5.0 0.00 0.00 0.00 76 1008.7
20260508185459 85 34 0.0 5.0 0.00 0.00 0.00 76 1008.7
20260508184952 85 58 0.0 2.0 0.00 0.00 0.00 76 1008.6
20260508184448 85 26 0.0 5.0 0.00 0.00 0.00 76 1008.6
20260508183931 85 31 0.0 5.0 0.00 0.00 0.00 76 1008.5
20260508183806 85 39 1.0 5.0 0.00 0.00 0.00 76 1008.7
20260508182904 85 31 0.0 5.0 0.00 0.00 0.00 76 1008.6
20260508182359 85 41 0.0 5.0 0.00 0.00 0.00 76 1008.6
20260508181845 85 25 0.0 5.0 0.00 0.00 0.00 76 1008.9
20260508181342 85 27 0.0 10.0 0.00 0.00 0.00 76 1008.9
20260508180831 85 3 0.0 10.0 0.00 0.00 0.00 76 1008.9
20260508180312 85 77 5.0 8.0 0.00 0.00 0.00 76 1009.0
20260508175807 85 31 0.0 10.0 0.00 0.00 0.00 76 1008.9
20260508175255 85 68 0.0 10.0 0.00 0.00 0.00 76 1009.2
20260508174750 85 48 1.0 5.0 0.00 0.00 0.00 76 1008.9
20260508174245 85 42 0.0 5.0 0.00 0.00 0.00 76 1009.1
20260508174112 85 83 2.0 5.0 0.00 0.00 0.00 76 1009.2
20260508173226 85 27 0.0 2.0 0.00 0.00 0.00 76 1009.1
20260508172717 85 95 0.0 5.0 0.00 0.00 0.00 76 1009.5
20260508172209 85 30 0.0 5.0 0.00 0.00 0.00 76 1009.2
20260508171659 85 33 0.0 2.0 0.00 0.00 0.00 76 1009.4
20260508171156 85 69 0.0 10.0 0.00 0.00 0.00 76 1009.4
20260508170805 85 7 0.0 10.0 0.00 0.00 0.00 76 1009.5
20260508165630 85 30 0.0 8.0 0.00 0.00 0.00 76 1009.4
20260508165124 85 42 2.0 10.0 0.00 0.00 0.00 76 1009.4
20260508164617 85 33 0.0 10.0 0.00 0.00 0.00 76 1009.6
20260508164106 85 51 2.0 8.0 0.00 0.00 0.00 75 1009.7
20260508163559 85 333 3.0 10.0 0.00 0.00 0.00 75 1009.6
20260508163049 85 3 1.0 10.0 0.00 0.00 0.00 75 1009.6
20260508162543 85 80 3.0 13.0 0.00 0.00 0.00 75 1009.6
20260508162032 85 76 11.0 13.0 0.00 0.00 0.00 75 1009.6
20260508161622 85 36 0.0 10.0 0.00 0.00 0.00 75 1009.7
20260508160456 86 35 0.0 8.0 0.00 0.00 0.00 74 1009.8
20260508155948 86 32 0.0 8.0 0.00 0.00 0.00 74 1010.0
20260508155455 86 190 1.0 8.0 0.00 0.00 0.00 74 1010.1
20260508155341 86 27 0.0 8.0 0.00 0.00 0.00 74 1010.0
20260508154428 86 198 1.0 15.0 0.00 0.00 0.00 74 1009.8
20260508153918 86 18 5.0 15.0 0.00 0.00 0.00 73 1009.8
20260508153410 86 37 0.0 5.0 0.00 0.00 0.00 74 1010.0
20260508152900 86 31 0.0 5.0 0.00 0.00 0.00 73 1009.8
20260508152353 86 37 0.0 5.0 0.00 0.00 0.00 73 1009.8
20260508151907 86 66 4.0 15.0 0.00 0.00 0.00 73 1010.2
20260508151844 86 318 0.0 10.0 0.00 0.00 0.00 73 1009.9
20260508151220 86 262 5.0 15.0 0.00 0.00 0.00 73 1010.0
20260508150322 86 121 1.0 8.0 0.00 0.00 0.00 73 1010.0
20260508145817 86 13 0.0 8.0 0.00 0.00 0.00 73 1010.0
20260508145315 86 330 2.0 13.0 0.00 0.00 0.00 73 1010.0
20260508145308 86 206 1.0 8.0 0.00 0.00 0.00 73 1010.0
20260508144701 87 3 0.0 13.0 0.00 0.00 0.00 72 1009.9
20260508143748 87 28 0.0 10.0 0.00 0.00 0.00 72 1010.1
20260508143243 87 53 4.0 8.0 0.00 0.00 0.00 72 1010.1
20260508142725 87 352 3.0 15.0 0.00 0.00 0.00 72 1010.3
20260508142216 87 305 3.0 25.0 0.00 0.00 0.00 72 1010.4
20260508141708 87 35 3.0 25.0 0.00 0.00 0.00 71 1010.4
20260508141202 87 42 0.0 13.0 0.00 0.00 0.00 71 1010.4
20260508140643 87 58 0.0 10.0 0.00 0.00 0.00 71 1010.3
20260508140138 87 29 0.0 10.0 0.00 0.00 0.00 71 1010.3
20260508135625 87 57 2.0 8.0 0.00 0.00 0.00 71 1010.4
20260508135119 87 33 0.0 8.0 0.00 0.00 0.00 71 1010.3
20260508134612 87 108 1.0 10.0 0.00 0.00 0.00 71 1010.0
20260508134101 88 22 0.0 10.0 0.00 0.00 0.00 71 1010.1
20260508133556 88 30 2.0 8.0 0.00 0.00 0.00 71 1009.9
20260508133047 88 85 3.0 10.0 0.00 0.00 0.00 70 1010.0
20260508132541 88 29 0.0 15.0 0.00 0.00 0.00 70 1010.1
20260508132037 88 76 7.0 15.0 0.00 0.00 0.00 70 1010.1
20260508131522 88 26 0.0 8.0 0.00 0.00 0.00 70 1009.9
20260508131017 88 11 0.0 8.0 0.00 0.00 0.00 70 1009.8
20260508130608 88 32 0.0 13.0 0.00 0.00 0.00 70 1009.9
20260508125442 88 30 2.0 8.0 0.00 0.00 0.00 70 1009.7
20260508124938 88 50 0.0 13.0 0.00 0.00 0.00 70 1009.5
20260508124430 89 11 1.0 13.0 0.00 0.00 0.00 69 1009.5
20260508123917 89 33 2.0 13.0 0.00 0.00 0.00 69 1009.4
20260508123412 89 39 2.0 17.0 0.00 0.00 0.00 69 1009.2
20260508122849 89 60 7.0 17.0 0.00 0.00 0.00 69 1009.2
20260508122341 89 55 0.0 28.0 0.00 0.00 0.00 69 1009.2
20260508121829 89 65 4.0 28.0 0.00 0.00 0.00 69 1009.2
20260508121331 89 64 1.0 17.0 0.00 0.00 0.00 69 1009.0
20260508120820 89 111 10.0 17.0 0.00 0.00 0.00 69 1009.1
20260508120311 89 205 6.0 10.0 0.00 0.00 0.00 69 1008.8
20260508115758 89 66 5.0 13.0 0.00 0.00 0.00 69 1009.0
20260508115654 89 58 5.0 13.0 0.00 0.00 0.00 69 1008.9
20260508114757 89 25 1.0 15.0 0.00 0.00 0.00 69 1008.8
20260508114247 89 300 3.0 15.0 0.00 0.00 0.00 69 1008.7
20260508114137 90 7 3.0 15.0 0.00 0.00 0.00 69 1008.5
20260508113216 90 35 1.0 10.0 0.00 0.00 0.00 69 1008.5
20260508112709 90 298 0.0 10.0 0.00 0.00 0.00 68 1008.2
20260508112201 90 24 0.0 10.0 0.00 0.00 0.00 68 1008.2
20260508112049 90 7 0.0 13.0 0.00 0.00 0.00 68 1008.3
20260508111148 90 56 0.0 17.0 0.00 0.00 0.00 68 1008.2
20260508110635 91 29 0.0 17.0 0.00 0.00 0.00 68 1008.3
20260508110533 91 51 0.0 30.0 0.00 0.00 0.00 68 1008.3
20260508105624 91 40 4.0 30.0 0.00 0.00 0.00 67 1008.2
20260508105112 91 275 4.0 17.0 0.00 0.00 0.00 67 1007.8
20260508104608 91 96 2.0 17.0 0.00 0.00 0.00 66 1007.8
20260508104100 91 37 1.0 23.0 0.00 0.00 0.00 66 1007.9
20260508103603 92 16 9.0 23.0 0.00 0.00 0.00 66 1007.9
20260508103457 92 342 6.0 20.0 0.00 0.00 0.00 66 1007.7
20260508102552 92 66 9.0 15.0 0.00 0.00 0.00 65 1007.7
20260508102032 92 119 2.0 15.0 0.00 0.00 0.00 65 1007.3
20260508101758 92 32 1.0 10.0 0.00 0.00 0.00 66 1007.4
20260508101526 92 32 1.0 10.0 0.00 0.00 0.00 66 1007.4
20260508101013 93 53 0.0 13.0 0.00 0.00 0.00 66 1007.4
20260508100510 93 61 2.0 15.0 0.00 0.00 0.00 65 1007.3
20260508100003 93 20 0.0 15.0 0.00 0.00 0.00 65 1007.3
20260508095450 93 65 3.0 13.0 0.00 0.00 0.00 65 1007.3
20260508094945 93 28 0.0 13.0 0.00 0.00 0.00 66 1006.9
20260508094439 93 30 1.0 17.0 0.00 0.00 0.00 66 1006.9
20260508094346 93 323 9.0 23.0 0.00 0.00 0.00 67 1006.6
20260508093411 93 89 5.0 23.0 0.00 0.00 0.00 67 1006.5
20260508093251 94 190 6.0 17.0 0.00 0.00 0.00 68 1006.9
20260508092359 94 127 4.0 17.0 0.00 0.00 0.00 68 1006.6
20260508091850 94 42 5.0 13.0 0.00 0.00 0.00 68 1006.5